EW1714 Weather Reports


Display with metric or nautical units.
time (UTC)temp
F
wind
direction
speed
MPH
gust
MPH
rain 1hr
in
rain 24hr
in
rain mn
in
humidity
%
barometer
mb
20260906004004 65 330 0.0 0.0 0.00 0.00 0.00 90 1013.7
20260906003506 65 330 0.0 0.0 0.00 0.00 0.00 90 1013.6
20260906003016 65 330 0.0 0.0 0.00 0.00 0.00 90 1013.6
20260906002509 65 330 0.0 0.0 0.00 0.00 0.00 89 1013.5
20260906002010 65 330 0.0 0.0 0.00 0.00 0.00 88 1013.5
20260906001525 66 330 0.0 0.0 0.00 0.00 0.00 88 1013.5
20260906001012 66 330 0.0 0.0 0.00 0.00 0.00 88 1013.5
20260906000518 66 330 0.0 0.0 0.00 0.00 0.00 87 1013.5
20260906000031 66 330 0.0 0.0 0.00 0.00 0.00 87 1013.5
20260905235513 66 330 0.0 0.0 0.00 0.00 0.00 87 1013.5
20260905235016 66 330 0.0 0.0 0.00 0.00 0.00 86 1013.5
20260905234535 66 330 0.0 0.0 0.00 0.00 0.00 86 1013.3
20260905234019 66 330 0.0 0.0 0.00 0.00 0.00 85 1013.2
20260905233506 66 330 0.0 0.0 0.00 0.00 0.00 85 1013.2
20260905233016 66 330 0.0 0.0 0.00 0.00 0.00 84 1013.2
20260905232507 66 330 0.0 0.0 0.00 0.00 0.00 84 1013.1
20260905232008 66 330 0.0 0.0 0.00 0.00 0.00 84 1013.0
20260905231522 66 330 0.0 0.0 0.00 0.00 0.00 84 1013.0
20260905231013 67 330 0.0 0.0 0.00 0.00 0.00 83 1013.0
20260905230513 67 330 0.0 0.0 0.00 0.00 0.00 83 1013.0
20260905230027 67 330 0.0 0.0 0.00 0.00 0.00 83 1012.9
20260905225513 67 330 0.0 0.0 0.00 0.00 0.00 82 1013.0
20260905225014 67 330 0.0 0.0 0.00 0.00 0.00 83 1012.9
20260905224530 67 330 0.0 0.0 0.00 0.00 0.00 83 1012.8
20260905224013 67 330 0.0 0.0 0.00 0.00 0.00 83 1012.7
20260905223518 67 330 0.0 0.0 0.00 0.00 0.00 83 1012.7
20260905223034 67 330 0.0 0.0 0.00 0.00 0.00 82 1012.6
20260905222522 67 330 0.0 0.0 0.00 0.00 0.00 83 1012.6
20260905222017 67 330 0.0 0.0 0.00 0.00 0.00 83 1012.5
20260905221531 67 330 0.0 0.0 0.00 0.00 0.00 83 1012.6
20260905221009 67 330 0.0 0.0 0.00 0.00 0.00 83 1012.7
20260905220509 67 330 0.0 0.0 0.00 0.00 0.00 82 1012.7
20260905220004 67 330 0.0 0.0 0.00 0.00 0.00 82 1012.5
20260905215504 67 330 0.0 0.0 0.00 0.00 0.00 83 1012.4
20260905215004 67 330 0.0 0.0 0.00 0.00 0.00 83 1012.4
20260905214505 67 330 0.0 0.0 0.00 0.00 0.00 82 1012.3
20260905214004 67 334 0.0 0.0 0.00 0.00 0.00 83 1012.3
20260905213505 67 330 0.0 0.0 0.00 0.00 0.00 83 1012.2
20260905213008 67 359 0.0 0.0 0.00 0.00 0.00 83 1012.0
20260905212505 67 359 0.0 0.0 0.00 0.00 0.00 83 1012.0
20260905212004 67 359 0.0 7.0 0.00 0.00 0.00 83 1011.9
20260905211513 67 359 0.0 7.0 0.00 0.00 0.00 82 1011.9
20260905211006 67 359 0.0 0.0 0.00 0.00 0.00 82 1011.9
20260905210508 68 359 0.0 7.0 0.00 0.00 0.00 81 1011.9
20260905210026 68 359 0.0 7.0 0.00 0.00 0.00 81 1011.8
20260905205511 69 1 0.0 7.0 0.00 0.00 0.00 81 1011.8
20260905205012 69 359 0.0 11.0 0.00 0.00 0.00 79 1011.8
20260905204527 70 51 3.0 11.0 0.00 0.00 0.00 76 1011.8
20260905204003 71 58 1.0 10.0 0.00 0.00 0.00 73 1011.7
20260905203503 72 359 1.0 10.0 0.00 0.00 0.00 71 1011.6
20260905203031 73 354 1.0 10.0 0.00 0.00 0.00 69 1011.5
20260905202503 74 338 1.0 10.0 0.00 0.00 0.00 69 1011.4
20260905202004 75 341 0.0 9.0 0.00 0.00 0.00 68 1011.2
20260905201519 75 360 0.0 3.0 0.00 0.00 0.00 68 1011.2
20260905201006 76 1 0.0 3.0 0.00 0.00 0.00 67 1011.1
20260905200508 76 4 0.0 3.0 0.00 0.00 0.00 66 1011.0
20260905200018 77 64 0.0 0.0 0.00 0.00 0.00 64 1011.0
20260905195507 78 146 0.0 0.0 0.00 0.00 0.00 65 1010.9
20260905195010 78 148 0.0 0.0 0.00 0.00 0.00 63 1010.8
20260905194526 78 138 0.0 0.0 0.00 0.00 0.00 66 1010.8
20260905194012 77 201 0.0 1.0 0.00 0.00 0.00 71 1010.8
20260905193512 76 201 0.0 1.0 0.00 0.00 0.00 72 1010.8
20260905193030 74 201 0.0 0.0 0.00 0.00 0.00 77 1010.9
20260905192506 74 201 0.0 1.0 0.00 0.00 0.00 74 1011.1
20260905192003 74 201 0.0 1.0 0.00 0.00 0.00 74 1011.0
20260905191509 75 201 0.0 0.0 0.00 0.00 0.00 73 1011.0
20260905191006 75 201 0.0 1.0 0.00 0.00 0.00 72 1011.0
20260905190504 76 201 0.0 2.0 0.00 0.00 0.00 70 1011.0
20260905190013 77 333 0.0 6.0 0.00 0.00 0.00 66 1011.0
20260905185507 77 360 0.0 6.0 0.00 0.00 0.00 65 1011.0
20260905185008 76 126 1.0 5.0 0.00 0.00 0.00 65 1011.0
20260905184521 75 360 0.0 3.0 0.00 0.00 0.00 68 1011.0
20260905184009 74 14 0.0 0.0 0.00 0.00 0.00 70 1011.0
20260905183512 74 14 0.0 1.0 0.00 0.00 0.00 69 1011.0
20260905183027 74 14 0.0 2.0 0.00 0.00 0.00 68 1011.1
20260905182514 74 34 0.0 3.0 0.00 0.00 0.00 68 1011.1
20260905182015 74 34 0.0 4.0 0.00 0.00 0.00 67 1011.1
20260905181527 75 51 0.0 7.0 0.00 0.00 0.00 66 1011.1
20260905181005 76 359 1.0 7.0 0.00 0.00 0.00 64 1011.1
20260905180506 76 21 0.0 5.0 0.00 0.00 0.00 63 1011.1
20260905180010 76 4 0.0 7.0 0.00 0.00 0.00 63 1011.0
20260905175506 77 338 0.0 8.0 0.00 0.00 0.00 61 1011.0
20260905175005 77 16 0.0 8.0 0.00 0.00 0.00 61 1010.9
20260905174520 77 360 1.0 5.0 0.00 0.00 0.00 61 1010.9
20260905174011 76 335 0.0 3.0 0.00 0.00 0.00 63 1010.8
20260905173510 76 360 0.0 3.0 0.00 0.00 0.00 66 1010.8
20260905173030 76 1 0.0 0.0 0.00 0.00 0.00 64 1010.8
20260905172511 76 1 0.0 5.0 0.00 0.00 0.00 63 1010.8
20260905172014 77 1 0.0 5.0 0.00 0.00 0.00 62 1010.7
20260905171526 77 349 0.0 7.0 0.00 0.00 0.00 61 1010.6
20260905171015 78 6 1.0 7.0 0.00 0.00 0.00 61 1010.6
20260905170515 77 356 0.0 6.0 0.00 0.00 0.00 62 1010.6
20260905170029 77 1 1.0 6.0 0.00 0.00 0.00 65 1010.6
20260905165514 76 41 0.0 4.0 0.00 0.00 0.00 67 1010.6
20260905165006 75 32 0.0 4.0 0.00 0.00 0.00 66 1010.7
20260905164532 75 343 0.0 2.0 0.00 0.00 0.00 66 1010.7
20260905164008 75 64 0.0 7.0 0.00 0.00 0.00 66 1010.6
20260905163508 75 8 1.0 8.0 0.00 0.00 0.00 67 1010.6
20260905163025 75 330 0.0 8.0 0.00 0.00 0.00 69 1010.6
20260905162516 74 359 0.0 6.0 0.00 0.00 0.00 68 1010.8
20260905162011 74 345 1.0 7.0 0.00 0.00 0.00 67 1010.8
20260905161527 74 359 2.0 8.0 0.00 0.00 0.00 67 1010.8
20260905161013 74 357 2.0 8.0 0.00 0.00 0.00 67 1010.8
20260905160514 75 360 1.0 7.0 0.00 0.00 0.00 65 1010.9
20260905160030 75 359 2.0 7.0 0.00 0.00 0.00 64 1010.9
20260905155516 75 1 0.0 4.0 0.00 0.00 0.00 67 1010.9
20260905155013 75 22 0.0 0.0 0.00 0.00 0.00 69 1010.9
20260905154531 75 21 0.0 1.0 0.00 0.00 0.00 69 1010.9
20260905154016 75 21 0.0 6.0 0.00 0.00 0.00 67 1011.0
20260905153508 76 27 0.0 6.0 0.00 0.00 0.00 67 1011.0
20260905153018 76 31 1.0 6.0 0.00 0.00 0.00 67 1011.0
20260905152507 76 360 0.0 6.0 0.00 0.00 0.00 67 1010.9
20260905152010 76 56 1.0 6.0 0.00 0.00 0.00 71 1010.9
20260905151523 75 29 0.0 7.0 0.00 0.00 0.00 70 1011.0
20260905151011 75 55 1.0 7.0 0.00 0.00 0.00 70 1011.0
20260905150512 74 8 0.0 5.0 0.00 0.00 0.00 73 1010.9
20260905150028 73 359 0.0 3.0 0.00 0.00 0.00 75 1010.9
20260905145515 72 342 0.0 4.0 0.00 0.00 0.00 77 1010.9
20260905145016 71 341 0.0 4.0 0.00 0.00 0.00 77 1011.0
20260905144530 71 342 0.0 3.0 0.00 0.00 0.00 78 1011.1
20260905144014 70 359 0.0 4.0 0.00 0.00 0.00 78 1011.1
20260905143517 70 359 0.0 4.0 0.00 0.00 0.00 79 1011.1
20260905143033 70 1 0.0 3.0 0.00 0.00 0.00 79 1011.1
20260905142518 70 11 0.0 2.0 0.00 0.00 0.00 80 1011.1
20260905142020 69 11 0.0 2.0 0.00 0.00 0.00 80 1011.1
20260905141516 69 11 0.0 3.0 0.00 0.00 0.00 80 1011.2
20260905141010 69 11 0.0 3.0 0.00 0.00 0.00 79 1011.2
20260905140513 69 1 0.0 0.0 0.00 0.00 0.00 80 1011.2
20260905140026 69 348 0.0 0.0 0.00 0.00 0.00 80 1011.2
20260905135513 69 348 0.0 0.0 0.00 0.00 0.00 80 1011.1
20260905135012 69 360 0.0 7.0 0.00 0.00 0.00 80 1011.1
20260905134529 69 360 0.0 8.0 0.00 0.00 0.00 80 1011.0
20260905134015 69 311 1.0 8.0 0.00 0.00 0.00 82 1011.0
20260905133516 68 6 0.0 5.0 0.00 0.00 0.00 82 1010.9
20260905133030 68 360 0.0 5.0 0.00 0.00 0.00 84 1010.9
20260905132515 68 326 0.0 5.0 0.00 0.00 0.00 84 1010.9
20260905132016 67 342 0.0 5.0 0.00 0.00 0.00 85 1010.9
20260905131525 67 27 0.0 5.0 0.00 0.00 0.00 85 1010.8
20260905131011 67 359 0.0 4.0 0.00 0.00 0.00 86 1010.7
20260905130506 67 359 0.0 4.0 0.00 0.00 0.00 87 1010.6
20260905130014 66 348 0.0 3.0 0.00 0.00 0.00 88 1010.5
20260905125508 66 4 0.0 2.0 0.00 0.00 0.00 88 1010.5
20260905125008 66 4 0.0 3.0 0.00 0.00 0.00 89 1010.5
20260905124528 65 4 0.0 3.0 0.00 0.00 0.00 90 1010.4
20260905124003 65 5 0.0 0.0 0.00 0.00 0.00 91 1010.4
20260905123504 64 5 0.0 2.0 0.00 0.00 0.00 91 1010.3
20260905123004 64 1 0.0 2.0 0.00 0.00 0.00 92 1010.2
20260905122504 64 1 0.0 0.0 0.00 0.00 0.00 92 1010.2
20260905122003 63 1 0.0 2.0 0.00 0.00 0.00 93 1010.1
20260905121522 63 1 0.0 2.0 0.00 0.00 0.00 93 1010.1
20260905121010 63 1 0.0 2.0 0.00 0.00 0.00 93 1010.0
20260905120511 62 1 0.0 1.0 0.00 0.00 0.00 94 1010.0
20260905120012 62 1 0.0 0.0 0.00 0.00 0.00 94 1010.1
20260905115508 62 1 0.0 0.0 0.00 0.00 0.00 94 1010.0
20260905115013 62 1 0.0 0.0 0.00 0.00 0.00 95 1009.9
20260905114531 61 1 0.0 0.0 0.00 0.00 0.00 95 1009.9
20260905114008 61 1 0.0 0.0 0.00 0.00 0.00 95 1009.9
20260905113508 61 1 0.0 0.0 0.00 0.00 0.00 95 1009.8
20260905113015 61 1 0.0 0.0 0.00 0.00 0.00 94 1009.8
20260905112504 60 1 0.0 0.0 0.00 0.00 0.00 94 1009.9
20260905112003 60 1 0.0 0.0 0.00 0.00 0.00 94 1009.9
20260905111510 60 1 0.0 0.0 0.00 0.00 0.00 94 1009.8
20260905111004 60 1 0.0 0.0 0.00 0.00 0.00 94 1009.8
20260905110504 60 1 0.0 0.0 0.00 0.00 0.00 94 1009.7
20260905110015 60 1 0.0 0.0 0.00 0.00 0.00 94 1009.8
20260905105508 60 1 0.0 0.0 0.00 0.00 0.00 94 1009.7
20260905105008 60 1 0.0 0.0 0.00 0.00 0.00 94 1009.6
20260905104515 60 1 0.0 0.0 0.00 0.00 0.00 94 1009.6
20260905104010 60 1 0.0 0.0 0.00 0.00 0.00 93 1009.5
20260905103512 60 1 0.0 0.0 0.00 0.00 0.00 93 1009.6
20260905103028 60 1 0.0 0.0 0.00 0.00 0.00 93 1009.6
20260905102510 60 1 0.0 0.0 0.00 0.00 0.00 93 1009.6
20260905102010 60 1 0.0 0.0 0.00 0.00 0.00 93 1009.6
20260905101526 60 1 0.0 0.0 0.00 0.00 0.00 93 1009.6
20260905101008 60 1 0.0 0.0 0.00 0.00 0.00 93 1009.6
20260905100504 60 1 0.0 0.0 0.00 0.00 0.00 93 1009.5
20260905100010 60 1 0.0 0.0 0.00 0.00 0.00 93 1009.6
20260905095510 60 1 0.0 0.0 0.00 0.00 0.00 93 1009.4
20260905095006 60 1 0.0 0.0 0.00 0.00 0.00 93 1009.4
20260905094514 60 1 0.0 0.0 0.00 0.00 0.00 93 1009.4
20260905094013 60 1 0.0 0.0 0.00 0.00 0.00 93 1009.3
20260905093510 60 1 0.0 0.0 0.00 0.00 0.00 93 1009.3
20260905093020 60 1 0.0 0.0 0.00 0.00 0.00 93 1009.3
20260905092510 60 1 0.0 0.0 0.00 0.00 0.00 92 1009.2
20260905092013 60 1 0.0 0.0 0.00 0.00 0.00 92 1009.2
20260905091519 60 1 0.0 0.0 0.00 0.00 0.00 92 1009.2
20260905091015 60 1 0.0 0.0 0.00 0.00 0.00 92 1009.2
20260905090510 60 1 0.0 0.0 0.00 0.00 0.00 92 1009.2
20260905090032 60 1 0.0 0.0 0.00 0.00 0.00 92 1009.1
20260905085515 60 1 0.0 0.0 0.00 0.00 0.00 92 1009.1
20260905085005 60 1 0.0 0.0 0.00 0.00 0.00 92 1009.1
20260905084530 60 1 0.0 0.0 0.00 0.00 0.00 92 1009.1
20260905084006 60 1 0.0 0.0 0.00 0.00 0.00 92 1009.0
20260905083505 60 1 0.0 0.0 0.00 0.00 0.00 92 1009.0
20260905083020 60 1 0.0 0.0 0.00 0.00 0.00 92 1009.0
20260905082510 60 1 0.0 0.0 0.00 0.00 0.00 92 1009.0
20260905082012 60 1 0.0 0.0 0.00 0.00 0.00 92 1009.0
20260905081525 60 1 0.0 0.0 0.00 0.00 0.00 92 1009.0
20260905081012 60 1 0.0 0.0 0.00 0.00 0.00 92 1009.0
20260905080512 60 1 0.0 0.0 0.00 0.00 0.00 92 1009.1
20260905080027 60 1 0.0 0.0 0.00 0.00 0.00 92 1009.1
20260905075515 60 1 0.0 0.0 0.00 0.00 0.00 91 1009.0
20260905075016 61 1 0.0 0.0 0.00 0.00 0.00 91 1009.1
20260905074528 61 1 0.0 0.0 0.00 0.00 0.00 91 1009.2
20260905074012 61 1 0.0 0.0 0.00 0.00 0.00 90 1009.2
20260905073513 61 1 0.0 0.0 0.00 0.00 0.00 90 1009.2
20260905073027 61 1 0.0 0.0 0.00 0.00 0.00 90 1009.2
20260905072507 61 1 0.0 0.0 0.00 0.00 0.00 90 1009.2
20260905072010 61 1 0.0 0.0 0.00 0.00 0.00 90 1009.2
20260905071739 61 1 0.0 0.0 0.00 0.00 0.00 90 1009.2
20260905071011 61 1 0.0 0.0 0.00 0.00 0.00 90 1009.3
20260905070513 61 1 0.0 0.0 0.00 0.00 0.00 90 1009.2
20260905070029 61 1 0.0 0.0 0.00 0.00 0.00 90 1009.3
20260905065514 62 1 0.0 0.0 0.00 0.00 0.00 90 1009.4
20260905065014 62 1 0.0 0.0 0.00 0.00 0.00 90 1009.5
20260905064505 62 1 0.0 0.0 0.00 0.00 0.00 89 1009.5
20260905064005 62 1 0.0 0.0 0.00 0.00 0.00 89 1009.5
20260905063504 62 1 0.0 0.0 0.00 0.00 0.00 89 1009.5
20260905063011 62 1 0.0 0.0 0.00 0.00 0.00 89 1009.5
20260905062509 62 1 0.0 0.0 0.00 0.00 0.00 89 1009.5
20260905062008 62 1 0.0 0.0 0.00 0.00 0.00 89 1009.6
20260905061517 62 1 0.0 0.0 0.00 0.00 0.00 88 1009.5
20260905061008 62 1 0.0 0.0 0.00 0.00 0.00 88 1009.6
20260905060508 62 1 0.0 0.0 0.00 0.00 0.00 88 1009.7
20260905060031 62 1 0.0 0.0 0.00 0.00 0.00 88 1009.7
20260905055504 62 1 0.0 0.0 0.00 0.00 0.00 88 1009.7
20260905055007 62 1 0.0 0.0 0.00 0.00 0.00 88 1009.7
20260905054506 62 1 0.0 0.0 0.00 0.00 0.00 88 1009.7
20260905054005 62 1 0.0 0.0 0.00 0.00 0.00 88 1009.8
20260905053503 62 1 0.0 0.0 0.00 0.00 0.00 88 1009.8
20260905053007 63 1 0.0 0.0 0.00 0.00 0.00 88 1009.9
20260905052505 63 1 0.0 0.0 0.00 0.00 0.00 88 1009.9
20260905052006 63 1 0.0 0.0 0.00 0.00 0.00 88 1009.9
20260905051528 63 1 0.0 0.0 0.00 0.00 0.00 88 1009.9
20260905051010 63 1 0.0 0.0 0.00 0.00 0.00 87 1010.0
20260905050508 63 1 0.0 0.0 0.00 0.00 0.00 87 1010.1
20260905050021 63 1 0.0 0.0 0.00 0.00 0.00 87 1010.1
20260905045509 63 1 0.0 0.0 0.00 0.00 0.00 87 1010.1
20260905045011 63 1 0.0 0.0 0.00 0.00 0.00 87 1010.1
20260905044525 63 1 0.0 0.0 0.00 0.00 0.00 87 1009.9
20260905044013 63 1 0.0 0.0 0.00 0.00 0.00 86 1009.8
20260905043503 64 1 0.0 0.0 0.00 0.00 0.00 86 1009.7
20260905043009 64 1 0.0 0.0 0.00 0.00 0.00 86 1009.7
20260905042507 64 1 0.0 0.0 0.00 0.00 0.00 85 1009.7
20260905042006 64 1 0.0 0.0 0.00 0.00 0.00 85 1009.8
20260905041509 64 1 0.0 0.0 0.00 0.00 0.00 85 1009.8
20260905041017 64 1 0.0 0.0 0.00 0.00 0.00 84 1009.9
20260905040507 65 1 0.0 0.0 0.00 0.00 0.00 84 1009.9
20260905040015 65 1 0.0 0.0 0.00 0.00 0.00 84 1009.9
20260905035509 65 1 0.0 0.0 0.00 0.00 0.00 84 1009.8
20260905035010 65 1 0.0 0.0 0.00 0.00 0.00 84 1009.7
20260905034529 65 1 0.0 0.0 0.00 0.00 0.00 83 1009.7
20260905034011 65 1 0.0 0.0 0.00 0.00 0.00 83 1009.8
20260905033510 65 1 0.0 0.0 0.00 0.00 0.00 83 1009.8
20260905033028 66 1 0.0 0.0 0.00 0.00 0.00 82 1009.9
20260905032512 66 1 0.0 0.0 0.00 0.00 0.00 82 1009.9
20260905032004 66 1 0.0 0.0 0.00 0.00 0.00 82 1009.9
20260905031506 66 1 0.0 0.0 0.00 0.00 0.00 82 1010.0
20260905031005 67 1 0.0 0.0 0.00 0.00 0.00 81 1009.9
20260905030503 67 1 0.0 0.0 0.00 0.00 0.00 81 1009.9
20260905030023 67 1 0.0 0.0 0.00 0.00 0.00 80 1009.9
20260905025507 67 1 0.0 0.0 0.00 0.00 0.00 80 1010.0
20260905025008 67 1 0.0 0.0 0.00 0.00 0.00 80 1009.9
20260905024517 67 1 0.0 0.0 0.00 0.00 0.00 78 1009.9
20260905024013 67 1 0.0 0.0 0.00 0.00 0.00 78 1009.9
20260905023511 68 1 0.0 0.0 0.00 0.00 0.00 78 1010.0
20260905023031 68 1 0.0 0.0 0.00 0.00 0.00 78 1010.0
20260905022512 68 1 0.0 0.0 0.00 0.00 0.00 78 1010.0
20260905022015 68 1 0.0 0.0 0.00 0.00 0.00 77 1010.0
20260905021531 69 1 0.0 0.0 0.00 0.00 0.00 77 1010.0
20260905021014 69 1 0.0 0.0 0.00 0.00 0.00 77 1010.2
20260905020516 69 1 0.0 0.0 0.00 0.00 0.00 76 1010.2
20260905020007 69 1 0.0 0.0 0.00 0.00 0.00 75 1010.2
20260905015506 69 1 0.0 0.0 0.00 0.00 0.00 74 1010.1
20260905015008 69 1 0.0 0.0 0.00 0.00 0.00 71 1010.2
20260905014515 70 1 0.0 0.0 0.00 0.00 0.00 71 1010.2
20260905014008 70 1 0.0 0.0 0.00 0.00 0.00 71 1010.2
20260905013510 70 1 0.0 0.0 0.00 0.00 0.00 71 1010.3
20260905013020 70 1 0.0 0.0 0.00 0.00 0.00 70 1010.3
20260905012512 70 1 0.0 0.0 0.00 0.00 0.00 70 1010.4
20260905012012 70 1 0.0 0.0 0.00 0.00 0.00 69 1010.4
20260905011528 71 359 0.0 0.0 0.00 0.00 0.00 69 1010.4
20260905011012 71 359 0.0 0.0 0.00 0.00 0.00 69 1010.4
20260905010514 71 359 0.0 0.0 0.00 0.00 0.00 69 1010.3
20260905010028 72 359 0.0 0.0 0.00 0.00 0.00 69 1010.3
20260905005518 72 359 0.0 0.0 0.00 0.00 0.00 67 1010.4
20260905005015 72 359 0.0 0.0 0.00 0.00 0.00 67 1010.4
20260905004511 72 359 0.0 0.0 0.00 0.00 0.00 66 1010.3